Pineville, WV

9:57 PM EST on December 15, 2019 (GMT -0500)
Pineville

Weather History for KI16 - November, 2019

Change the Weather History Date:

Saturday, November 16, 2019

  Actual Average (KBKW) Record (KBKW)
Temperature  
Mean Temperature 40 °F -  
Max Temperature 57 °F 51 °F 79 °F (1918)
Min Temperature 24 °F 33 °F 11 °F (1967)
Degree Days  
Heating Degree Days 24    
Moisture  
Dew Point 28 °F    
Average Humidity 79    
Maximum Humidity 94    
Minimum Humidity 32    
Precipitation  
Precipitation 0.00 in - - ()
Sea Level Pressure  
Sea Level Pressure 30.23 in    
Wind  
Wind Speed - ()    
Max Wind Speed -    
Max Gust Speed -    
Visibility 10.0 miles    
Events      
Averages and records for this station are not official NWS values.
T = Trace of Precipitation, MM = Missing Value Source: Averaged Metar Reports

Daily Weather History Graph

Daily Weather History Graph

Search for Another Location

Airport or City:

Astronomy

Nov. 16, 2019 Rise Set
Actual Time 7:06 AM EST 5:14 PM EST
Civil Twilight 6:38 AM EST 5:42 PM EST
Nautical Twilight 6:07 AM EST 6:14 PM EST
Astronomical Twilight 5:36 AM EST 6:45 PM EST
Moon 8:48 PM EST 10:57 AM EST
Length of Visible Light 11h 03m
Length of Day
10h 07m
Waning Gibbous, 82% of the Moon is Illuminated
Nov 16
Waning Gibbous
Nov 19
Last Quarter
Nov 26
New
Dec 4
First Quarter
Dec 12
Full

Hourly Weather History & Observations

Time (EST) Temp. Dew Point Humidity Pressure Visibility Wind Dir Wind Speed Gust Speed Precip Events Conditions
12:15 AM 28.4 °F 26.4 °F 92% 30.26 in 10.0 mi North - - N/A   Unknown
12:35 AM 27.9 °F 26.1 °F 93% 30.26 in 10.0 mi North - - N/A   Unknown
12:55 AM 27.7 °F 25.7 °F 92% 30.26 in 10.0 mi North - - N/A   Unknown
1:15 AM 27.5 °F 25.7 °F 93% 30.25 in 10.0 mi North - - N/A   Unknown
1:35 AM 27.3 °F 25.5 °F 93% 30.25 in 10.0 mi North - - N/A   Unknown
1:55 AM 27.3 °F 25.0 °F 91% 30.24 in 10.0 mi North - - N/A   Unknown
2:15 AM 26.4 °F 24.6 °F 93% 30.24 in 10.0 mi North - - N/A   Unknown
2:35 AM 27.0 °F 25.5 °F 94% 30.24 in 10.0 mi North - - N/A   Unknown
2:55 AM 26.6 °F 24.6 °F 92% 30.23 in 10.0 mi North - - N/A   Unknown
3:15 AM 26.4 °F 24.6 °F 93% 30.23 in 10.0 mi North - - N/A   Unknown
3:35 AM 25.9 °F 23.9 °F 92% 30.23 in 10.0 mi North - - N/A   Unknown
3:55 AM 25.2 °F 23.0 °F 91% 30.23 in 10.0 mi North - - N/A   Unknown
4:15 AM 25.2 °F 23.5 °F 94% 30.23 in 10.0 mi North - - N/A   Unknown
4:35 AM 24.8 °F 23.2 °F 94% 30.23 in 10.0 mi North - - N/A   Unknown
4:55 AM 25.3 °F 23.7 °F 94% 30.23 in 10.0 mi North - - N/A   Unknown
5:15 AM 24.8 °F 23.0 °F 93% 30.24 in 10.0 mi North - - N/A   Unknown
5:35 AM 25.2 °F 23.0 °F 91% 30.25 in 10.0 mi North - - N/A   Unknown
5:55 AM 24.8 °F 22.8 °F 92% 30.26 in 10.0 mi North - - N/A   Unknown
6:15 AM 24.8 °F 22.8 °F 92% 30.26 in 10.0 mi North - - N/A   Unknown
6:35 AM 24.1 °F 22.1 °F 92% 30.26 in 10.0 mi North - - N/A   Unknown
6:55 AM 24.3 °F 22.5 °F 93% 30.27 in 10.0 mi North - - N/A   Unknown
7:15 AM 24.3 °F 21.9 °F 91% 30.28 in 10.0 mi North - - N/A   Unknown
7:35 AM 24.1 °F 22.1 °F 92% 30.28 in 10.0 mi North - - N/A   Unknown
7:55 AM 24.8 °F 23.0 °F 93% 30.29 in 10.0 mi North - - N/A   Unknown
8:15 AM 26.8 °F 24.4 °F 91% 30.29 in 10.0 mi North - - N/A   Unknown
8:35 AM 28.6 °F 25.9 °F 90% 30.29 in 10.0 mi North - - N/A   Unknown
8:55 AM 30.9 °F 27.7 °F 88% 30.29 in 10.0 mi North - - N/A   Unknown
9:15 AM 32.2 °F 30.0 °F 92% 30.29 in 10.0 mi North - - N/A   Unknown
9:35 AM 34.2 °F 31.5 °F 90% 30.29 in 10.0 mi North - - N/A   Clear
9:55 AM 36.3 °F 32.0 °F 84% 30.28 in 10.0 mi North - - N/A   Clear
10:15 AM 38.5 °F 32.2 °F 78% 30.28 in 10.0 mi North - - N/A   Unknown
10:35 AM 40.6 °F 31.8 °F 71% 30.28 in 10.0 mi North - - N/A   Unknown
10:55 AM 42.4 °F 31.6 °F 66% 30.27 in 10.0 mi North - - N/A   Unknown
11:35 AM 46.2 °F 31.3 °F 56% 30.25 in 10.0 mi North - - N/A   Clear
11:55 AM 47.5 °F 31.5 °F 54% 30.24 in 10.0 mi North - - N/A   Clear
12:15 PM 49.3 °F 30.7 °F 49% 30.23 in 10.0 mi North - - N/A   Clear
12:35 PM 51.4 °F 30.2 °F 44% 30.21 in 10.0 mi North - - N/A   Clear
12:55 PM 51.6 °F 29.8 °F 43% 30.20 in 10.0 mi North - - N/A   Clear
1:15 PM 52.7 °F 28.9 °F 40% 30.19 in 10.0 mi North - - N/A   Clear
1:35 PM 55.2 °F 29.3 °F 37% 30.18 in 10.0 mi North - - N/A   Clear
1:55 PM 55.8 °F 26.8 °F 33% 30.18 in 10.0 mi North - - N/A   Clear
2:15 PM 56.3 °F 27.0 °F 32% 30.17 in 10.0 mi North - - N/A   Clear
2:35 PM 56.5 °F 26.8 °F 32% 30.16 in 10.0 mi North - - N/A   Clear
2:55 PM 56.5 °F 31.3 °F 38% 30.16 in 10.0 mi North - - N/A   Clear
3:15 PM 57.0 °F 28.6 °F 34% 30.16 in 10.0 mi North - - N/A   Clear
3:35 PM 49.6 °F 34.7 °F 56% 30.15 in 10.0 mi North - - N/A   Clear
4:15 PM 46.9 °F 34.3 °F 62% 30.16 in 10.0 mi North - - N/A   Clear
4:35 PM 45.0 °F 34.2 °F 66% 30.16 in 10.0 mi North - - N/A   Clear
4:55 PM 43.9 °F 34.5 °F 70% 30.16 in 10.0 mi North - - N/A   Clear
5:15 PM 42.4 °F 34.5 °F 74% 30.17 in 10.0 mi North - - N/A   Clear
5:35 PM 40.6 °F 34.0 °F 77% 30.18 in 10.0 mi North - - N/A   Clear
5:55 PM 39.4 °F 33.8 °F 80% 30.19 in 10.0 mi North - - N/A   Clear
6:15 PM 37.9 °F 33.4 °F 84% 30.20 in 10.0 mi North - - N/A   Clear
6:35 PM 36.3 °F 32.2 °F 85% 30.20 in 10.0 mi North - - N/A   Unknown
6:55 PM 35.4 °F 32.0 °F 87% 30.21 in 10.0 mi North - - N/A   Unknown
7:15 PM 34.5 °F 31.3 °F 88% 30.21 in 10.0 mi North - - N/A   Unknown
7:35 PM 33.4 °F 30.7 °F 90% 30.21 in 10.0 mi North - - N/A   Unknown
7:55 PM 33.8 °F 31.3 °F 90% 30.21 in 10.0 mi North - - N/A   Unknown
8:15 PM 32.9 °F 30.7 °F 92% 30.21 in 10.0 mi North - - N/A   Unknown
8:35 PM 32.9 °F 30.9 °F 92% 30.21 in 10.0 mi North - - N/A   Unknown
8:55 PM 32.4 °F 30.4 °F 92% 30.21 in 10.0 mi North - - N/A   Clear
9:15 PM 32.9 °F 30.7 °F 92% 30.20 in 10.0 mi North - - N/A   Clear
9:35 PM 32.2 °F 30.4 °F 93% 30.21 in 10.0 mi North - - N/A   Unknown
9:55 PM 32.0 °F 30.2 °F 93% 30.21 in 10.0 mi North - - N/A   Unknown
10:15 PM 32.0 °F 29.8 °F 92% 30.21 in 10.0 mi North - - N/A   Unknown
10:35 PM 32.0 °F 29.7 °F 91% 30.21 in 10.0 mi North - - N/A   Unknown
10:55 PM 31.5 °F 28.8 °F 90% 30.20 in 10.0 mi North - - N/A   Unknown
11:15 PM 31.3 °F 28.6 °F 90% 30.20 in 10.0 mi North - - N/A   Unknown
11:35 PM 31.1 °F 28.2 °F 89% 30.19 in 10.0 mi North - - N/A   Unknown
11:55 PM 32.0 °F 28.2 °F 86% 30.19 in 10.0 mi North - - N/A   Unknown